CW3109 Weather Reports


Display with metric or nautical units.
time (UTC)temp
F
wind
direction
speed
MPH
gust
MPH
rain 1hr
in
rain 24hr
in
rain mn
in
humidity
%
barometer
mb
20190425194405 70 271 6.0 10.0 0.00 0.00 0.00 63 1013.1
20190425193905 70 282 6.0 10.0 0.00 0.00 0.00 62 1013.1
20190425193405 69 254 6.0 9.0 0.00 0.00 0.00 64 1013.1
20190425192905 69 274 5.0 12.0 0.00 0.00 0.00 65 1013.2
20190425192405 69 281 5.0 12.0 0.00 0.00 0.00 64 1013.2
20190425191905 68 250 5.0 9.0 0.00 0.00 0.00 65 1013.2
20190425191406 69 266 5.0 10.0 0.00 0.00 0.00 65 1013.2
20190425190906 68 268 5.0 9.0 0.00 0.00 0.00 65 1013.2
20190425190406 69 279 6.0 10.0 0.00 0.00 0.00 64 1013.2
20190425185906 68 249 5.0 7.0 0.00 0.00 0.00 65 1013.3
20190425185406 68 262 3.0 8.0 0.00 0.00 0.00 65 1013.3
20190425184906 68 262 5.0 8.0 0.00 0.00 0.00 67 1013.3
20190425184406 67 298 5.0 6.0 0.00 0.00 0.00 67 1013.3
20190425183906 67 291 5.0 10.0 0.00 0.00 0.00 67 1013.3
20190425183405 67 256 3.0 7.0 0.00 0.00 0.00 66 1013.3
20190425182905 68 257 4.0 7.0 0.00 0.00 0.00 65 1013.4
20190425182405 67 281 3.0 10.0 0.00 0.00 0.00 67 1013.4
20190425181906 67 281 2.0 7.0 0.00 0.00 0.00 67 1013.4
20190425181406 66 247 3.0 9.0 0.00 0.00 0.00 68 1013.5
20190425180905 66 247 2.0 7.0 0.00 0.00 0.00 69 1013.5
20190425180405 66 259 5.0 7.0 0.00 0.00 0.00 70 1013.5
20190425175906 65 279 3.0 7.0 0.00 0.00 0.00 70 1013.4
20190425175405 65 263 5.0 9.0 0.00 0.00 0.00 70 1013.4
20190425174906 65 278 5.0 8.0 0.00 0.00 0.00 70 1013.4
20190425174406 65 259 4.0 9.0 0.00 0.00 0.00 70 1013.3
20190425173906 65 288 3.0 6.0 0.00 0.00 0.00 70 1013.3
20190425173406 65 251 3.0 6.0 0.00 0.00 0.00 71 1013.3
20190425172906 65 273 4.0 7.0 0.00 0.00 0.00 72 1013.3
20190425172406 64 258 3.0 8.0 0.00 0.00 0.00 72 1013.3
20190425171907 64 274 5.0 7.0 0.00 0.00 0.00 70 1013.3
20190425171406 64 235 1.0 7.0 0.00 0.00 0.00 70 1013.2
20190425170905 64 300 2.0 9.0 0.00 0.00 0.00 71 1013.2
20190425170405 64 288 1.0 5.0 0.00 0.00 0.00 71 1013.2
20190425165906 64 226 2.0 3.0 0.00 0.00 0.00 72 1013.2
20190425165413 63 250 1.0 5.0 0.00 0.00 0.00 71 1013.2
20190425164905 63 256 2.0 5.0 0.00 0.00 0.00 72 1013.2
20190425164406 63 288 2.0 5.0 0.00 0.00 0.00 72 1013.3
20190425163906 62 267 2.0 5.0 0.00 0.00 0.00 73 1013.3
20190425163405 62 223 1.0 5.0 0.00 0.00 0.00 75 1013.3
20190425162906 62 283 1.0 5.0 0.00 0.00 0.00 75 1013.3
20190425162405 62 251 2.0 5.0 0.00 0.00 0.00 75 1013.3
20190425161906 61 236 1.0 3.0 0.00 0.00 0.00 76 1013.3
20190425161405 61 218 2.0 5.0 0.00 0.00 0.00 76 1013.3
20190425160906 60 294 0.0 3.0 0.00 0.00 0.00 77 1013.3
20190425160405 60 227 0.0 0.0 0.00 0.00 0.00 77 1013.3
20190425155906 60 275 0.0 0.0 0.00 0.00 0.00 78 1013.3
20190425155426 60 271 0.0 3.0 0.00 0.00 0.00 77 1013.3
20190425154905 59 288 2.0 3.0 0.00 0.00 0.00 77 1013.3
20190425154406 59 251 2.0 3.0 0.00 0.00 0.00 77 1013.3
20190425153905 59 286 3.0 5.0 0.00 0.00 0.00 78 1013.3
20190425153406 59 270 2.0 5.0 0.00 0.00 0.00 78 1013.3
20190425152905 59 249 1.0 3.0 0.00 0.00 0.00 78 1013.3
20190425152404 59 269 2.0 3.0 0.00 0.00 0.00 79 1013.3
20190425151905 59 255 2.0 3.0 0.00 0.00 0.00 79 1013.3
20190425151406 58 281 0.0 2.0 0.00 0.00 0.00 79 1013.3
20190425150905 59 284 2.0 3.0 0.00 0.00 0.00 79 1013.3
20190425150405 59 271 1.0 3.0 0.00 0.00 0.00 79 1013.3
20190425145906 59 323 0.0 0.0 0.00 0.00 0.00 79 1013.3
20190425145407 58 325 0.0 0.0 0.00 0.00 0.00 80 1013.3
20190425144905 58 325 0.0 0.0 0.00 0.00 0.00 80 1013.3
20190425144406 58 325 0.0 0.0 0.00 0.00 0.00 81 1013.3
20190425143905 58 325 0.0 0.0 0.00 0.00 0.00 82 1013.3
20190425143406 57 325 0.0 0.0 0.00 0.00 0.00 83 1013.3
20190425142905 57 325 0.0 0.0 0.00 0.00 0.00 84 1013.2
20190425142406 57 325 0.0 0.0 0.00 0.00 0.00 85 1013.2
20190425141905 56 325 0.0 0.0 0.00 0.00 0.00 85 1013.2
20190425141406 56 325 0.0 0.0 0.00 0.00 0.00 86 1013.0
20190425140905 56 325 0.0 0.0 0.00 0.00 0.00 86 1013.0
20190425140406 55 325 0.0 0.0 0.00 0.00 0.00 87 1013.0
20190425135906 55 325 0.0 0.0 0.00 0.00 0.00 87 1012.8
20190425135406 55 325 0.0 0.0 0.00 0.00 0.00 86 1012.8
20190425134906 54 325 0.0 0.0 0.00 0.00 0.00 87 1012.8
20190425134406 54 325 0.0 0.0 0.00 0.00 0.00 86 1012.8
20190425133906 54 325 0.0 0.0 0.00 0.00 0.00 86 1012.8
20190425133406 54 325 0.0 0.0 0.00 0.00 0.00 86 1012.8
20190425132906 54 325 0.0 0.0 0.00 0.00 0.00 86 1012.7
20190425132406 54 325 0.0 0.0 0.00 0.00 0.00 86 1012.7
20190425131906 54 325 0.0 0.0 0.00 0.00 0.00 86 1012.7
20190425131406 54 325 0.0 0.0 0.00 0.00 0.00 85 1012.7
20190425130906 54 325 0.0 0.0 0.00 0.00 0.00 85 1012.7
20190425130406 54 325 0.0 0.0 0.00 0.00 0.00 85 1012.7
20190425125906 55 325 0.0 0.0 0.00 0.00 0.00 85 1012.6
20190425125405 55 325 0.0 0.0 0.00 0.00 0.00 85 1012.6
20190425124906 55 325 0.0 0.0 0.00 0.00 0.00 85 1012.6
20190425124406 55 325 0.0 0.0 0.00 0.00 0.00 85 1012.5
20190425123906 55 325 0.0 0.0 0.00 0.00 0.00 85 1012.5
20190425123406 55 325 0.0 0.0 0.00 0.00 0.00 85 1012.5
20190425122905 55 325 0.0 0.0 0.00 0.00 0.00 85 1012.5
20190425122405 55 325 0.0 0.0 0.00 0.00 0.00 85 1012.5
20190425121904 55 325 0.0 0.0 0.00 0.00 0.00 85 1012.5
20190425121404 55 325 0.0 0.0 0.00 0.00 0.00 84 1012.5
20190425120905 55 325 0.0 0.0 0.00 0.00 0.00 84 1012.5
20190425120405 55 325 0.0 0.0 0.00 0.00 0.00 84 1012.5
20190425115905 55 325 0.0 0.0 0.00 0.00 0.00 84 1012.4
20190425115405 55 325 0.0 0.0 0.00 0.00 0.00 84 1012.4
20190425114905 55 325 0.0 0.0 0.00 0.00 0.00 84 1012.4
20190425114406 55 325 0.0 0.0 0.00 0.00 0.00 84 1012.5
20190425113905 55 325 0.0 0.0 0.00 0.00 0.00 83 1012.5
20190425113405 55 325 0.0 0.0 0.00 0.00 0.00 84 1012.5
20190425112905 55 325 0.0 0.0 0.00 0.00 0.00 83 1012.5
20190425112405 55 325 0.0 0.0 0.00 0.00 0.00 83 1012.5
20190425111905 55 325 0.0 0.0 0.00 0.00 0.00 83 1012.5
20190425111405 55 325 0.0 0.0 0.00 0.00 0.00 83 1012.4
20190425110906 56 325 0.0 0.0 0.00 0.00 0.00 83 1012.4
20190425110406 56 325 0.0 0.0 0.00 0.00 0.00 83 1012.4
20190425105906 56 325 0.0 0.0 0.00 0.00 0.00 83 1012.5
20190425105406 56 325 0.0 0.0 0.00 0.00 0.00 83 1012.5
20190425104906 56 325 0.0 0.0 0.00 0.00 0.00 83 1012.5
20190425104406 56 325 0.0 1.0 0.00 0.00 0.00 83 1012.5
20190425103906 56 315 1.0 3.0 0.00 0.00 0.00 82 1012.5
20190425103407 56 272 0.0 3.0 0.00 0.00 0.00 82 1012.5
20190425102906 56 272 0.0 2.0 0.00 0.00 0.00 82 1012.5
20190425102407 56 272 0.0 2.0 0.00 0.00 0.00 82 1012.5
20190425101905 56 272 1.0 2.0 0.00 0.00 0.00 82 1012.5
20190425101406 56 328 1.0 3.0 0.00 0.00 0.00 82 1012.5
20190425100905 56 278 0.0 0.0 0.00 0.00 0.00 81 1012.5
20190425100407 56 277 0.0 0.0 0.00 0.00 0.00 81 1012.5
20190425095906 56 276 0.0 0.0 0.00 0.00 0.00 81 1012.5
20190425095406 56 276 0.0 0.0 0.00 0.00 0.00 81 1012.5
20190425094906 56 276 1.0 3.0 0.00 0.00 0.00 81 1012.5
20190425094406 56 284 0.0 3.0 0.00 0.00 0.00 81 1012.5
20190425093905 56 263 0.0 0.0 0.00 0.00 0.00 81 1012.5
20190425093406 56 263 0.0 0.0 0.00 0.00 0.00 80 1012.5
20190425092905 56 263 0.0 0.0 0.00 0.00 0.00 80 1012.5
20190425092438 56 263 0.0 0.0 0.00 0.00 0.00 80 1012.5
20190425091905 56 263 1.0 3.0 0.00 0.00 0.00 80 1012.5
20190425091407 57 278 0.0 3.0 0.00 0.00 0.00 80 1012.6
20190425090905 57 309 0.0 0.0 0.00 0.00 0.00 80 1012.6
20190425090406 57 317 0.0 0.0 0.00 0.00 0.00 80 1012.6
20190425085906 57 315 0.0 0.0 0.00 0.00 0.00 80 1012.6
20190425085406 57 315 0.0 0.0 0.00 0.00 0.00 80 1012.6
20190425084905 57 314 0.0 0.0 0.00 0.00 0.00 79 1012.6
20190425084405 57 313 0.0 0.0 0.00 0.00 0.00 79 1012.7
20190425083905 57 312 0.0 0.0 0.00 0.00 0.00 79 1012.7
20190425083405 57 312 0.0 0.0 0.00 0.00 0.00 79 1012.7
20190425082905 57 310 0.0 0.0 0.00 0.00 0.00 79 1012.7
20190425082405 57 310 0.0 0.0 0.00 0.00 0.00 79 1012.7
20190425081905 58 304 0.0 3.0 0.00 0.00 0.00 79 1012.7
20190425081407 58 297 1.0 3.0 0.00 0.00 0.00 79 1012.8
20190425080906 58 303 1.0 3.0 0.00 0.00 0.00 79 1012.8
20190425080406 58 323 1.0 3.0 0.00 0.00 0.00 78 1012.8
20190425075906 58 268 1.0 3.0 0.00 0.00 0.00 78 1012.8
20190425075406 58 344 0.0 0.0 0.00 0.00 0.00 78 1012.8
20190425074906 58 276 0.0 2.0 0.00 0.00 0.00 78 1012.8
20190425074406 58 274 0.0 3.0 0.00 0.00 0.00 78 1012.7
20190425073906 58 273 1.0 3.0 0.00 0.00 0.00 78 1012.7
20190425073406 58 290 2.0 3.0 0.00 0.00 0.00 77 1012.7
20190425072905 58 304 0.0 3.0 0.00 0.00 0.00 77 1012.7
20190425072406 58 326 1.0 2.0 0.00 0.00 0.00 77 1012.7
20190425071906 58 344 1.0 3.0 0.00 0.00 0.00 77 1012.7
20190425071406 58 313 2.0 3.0 0.00 0.00 0.00 77 1012.7
20190425070911 59 271 1.0 3.0 0.00 0.00 0.00 76 1012.7
20190425070406 59 299 1.0 3.0 0.00 0.00 0.00 76 1012.7
20190425065906 59 286 2.0 3.0 0.00 0.00 0.00 77 1012.6
20190425065406 59 340 1.0 3.0 0.00 0.00 0.00 77 1012.6
20190425064906 59 284 0.0 3.0 0.00 0.00 0.00 77 1012.6
20190425064405 59 282 1.0 3.0 0.00 0.00 0.00 77 1012.6
20190425063905 60 280 1.0 3.0 0.00 0.00 0.00 77 1012.6
20190425063405 60 308 1.0 5.0 0.00 0.00 0.00 77 1012.6
20190425062906 60 275 1.0 3.0 0.00 0.00 0.00 77 1012.6
20190425062405 60 280 3.0 5.0 0.00 0.00 0.00 77 1012.6
20190425061905 60 292 1.0 3.0 0.00 0.00 0.00 76 1012.6
20190425061405 60 282 3.0 6.0 0.00 0.00 0.00 76 1012.6
20190425060905 60 282 3.0 7.0 0.00 0.00 0.00 76 1012.6
20190425060406 61 325 1.0 3.0 0.00 0.00 0.00 75 1012.6
20190425055905 61 271 0.0 6.0 0.00 0.00 0.00 75 1012.4
20190425055407 61 299 2.0 6.0 0.00 0.00 0.00 75 1012.4
20190425054905 61 281 2.0 3.0 0.00 0.00 0.00 74 1012.4
20190425054406 61 298 1.0 3.0 0.00 0.00 0.00 74 1012.4
20190425053905 62 288 3.0 6.0 0.00 0.00 0.00 74 1012.4
20190425053406 62 287 1.0 5.0 0.00 0.00 0.00 73 1012.4
20190425052906 62 287 0.0 0.0 0.00 0.00 0.00 74 1012.4
20190425052405 62 277 0.0 0.0 0.00 0.00 0.00 74 1012.4
20190425051905 62 290 0.0 0.0 0.00 0.00 0.00 74 1012.4
20190425051406 62 289 0.0 0.0 0.00 0.00 0.00 74 1012.4
20190425050905 62 288 0.0 0.0 0.00 0.00 0.00 74 1012.4
20190425050404 62 288 0.0 0.0 0.00 0.00 0.00 73 1012.4
20190425045905 62 288 0.0 0.0 0.00 0.00 0.00 72 1012.3
20190425045405 62 288 0.0 0.0 0.00 0.00 0.00 72 1012.3
20190425044904 62 288 0.0 0.0 0.00 0.00 0.00 71 1012.3
20190425044405 62 288 0.0 3.0 0.00 0.00 0.00 71 1012.3
20190425043905 63 288 1.0 3.0 0.00 0.00 0.00 70 1012.3
20190425043406 63 287 2.0 5.0 0.00 0.00 0.00 70 1012.3
20190425042905 63 275 4.0 7.0 0.00 0.00 0.00 69 1012.1
20190425042406 63 273 2.0 7.0 0.00 0.00 0.00 69 1012.1
20190425041905 64 299 2.0 5.0 0.00 0.00 0.00 68 1012.1
20190425041405 64 285 3.0 6.0 0.00 0.00 0.00 68 1011.8
20190425040905 64 265 3.0 5.0 0.00 0.00 0.00 68 1011.8
20190425040405 64 275 3.0 3.0 0.00 0.00 0.00 68 1011.8
20190425035905 64 293 2.0 6.0 0.00 0.00 0.00 68 1011.7
20190425035405 64 289 2.0 5.0 0.00 0.00 0.00 68 1011.7
20190425034906 64 287 3.0 5.0 0.00 0.00 0.00 67 1011.7
20190425034405 64 263 2.0 7.0 0.00 0.00 0.00 67 1011.6
20190425033905 64 284 3.0 5.0 0.00 0.00 0.00 67 1011.6
20190425033405 64 290 3.0 6.0 0.00 0.00 0.00 67 1011.6
20190425032905 64 269 3.0 5.0 0.00 0.00 0.00 66 1011.5
20190425032404 64 290 2.0 5.0 0.00 0.00 0.00 66 1011.5
20190425031906 64 282 2.0 5.0 0.00 0.00 0.00 66 1011.5
20190425031406 64 290 4.0 6.0 0.00 0.00 0.00 65 1011.4
20190425030905 64 286 2.0 6.0 0.00 0.00 0.00 66 1011.4
20190425030405 65 287 3.0 7.0 0.00 0.00 0.00 65 1011.4
20190425025905 65 282 6.0 12.0 0.00 0.00 0.00 66 1011.3
20190425025405 66 275 6.0 10.0 0.00 0.00 0.00 66 1011.3
20190425024906 67 284 4.0 9.0 0.00 0.00 0.00 67 1011.3
20190425024406 67 286 6.0 12.0 0.00 0.00 0.00 65 1011.3
20190425023906 67 282 3.0 9.0 0.00 0.00 0.00 64 1011.3
20190425023405 68 291 5.0 10.0 0.00 0.00 0.00 64 1011.3
20190425022905 69 275 5.0 12.0 0.00 0.00 0.00 62 1011.2
20190425022406 70 269 6.0 10.0 0.00 0.00 0.00 61 1011.2
20190425021906 71 266 5.0 9.0 0.00 0.00 0.00 59 1011.2
20190425021405 71 282 5.0 10.0 0.00 0.00 0.00 56 1011.2
20190425020905 72 271 6.0 10.0 0.00 0.00 0.00 57 1011.2
20190425020405 73 273 5.0 9.0 0.00 0.00 0.00 56 1011.2
20190425015906 74 267 4.0 7.0 0.00 0.00 0.00 46 1011.2
20190425015405 74 272 3.0 5.0 0.00 0.00 0.00 46 1011.2
20190425014906 74 277 3.0 6.0 0.00 0.00 0.00 46 1011.2
20190425014406 74 298 5.0 7.0 0.00 0.00 0.00 45 1011.2
20190425013905 75 288 5.0 10.0 0.00 0.00 0.00 45 1011.2
20190425013406 75 280 5.0 9.0 0.00 0.00 0.00 46 1011.2
20190425012904 75 300 3.0 7.0 0.00 0.00 0.00 47 1011.2
20190425012405 75 282 6.0 10.0 0.00 0.00 0.00 48 1011.2
20190425011905 75 341 5.0 8.0 0.00 0.00 0.00 50 1011.2
20190425011405 75 292 5.0 12.0 0.00 0.00 0.00 50 1011.3
20190425010905 75 295 5.0 9.0 0.00 0.00 0.00 47 1011.3
20190425010405 75 293 6.0 10.0 0.00 0.00 0.00 47 1011.3
20190425005906 75 296 4.0 12.0 0.00 0.00 0.00 48 1011.4
20190425005406 75 296 7.0 13.0 0.00 0.00 0.00 51 1011.4
20190425004907 75 269 9.0 12.0 0.00 0.00 0.00 49 1011.4
20190425004406 75 269 6.0 12.0 0.00 0.00 0.00 50 1011.4
20190425003906 75 276 6.0 12.0 0.00 0.00 0.00 50 1011.4
20190425003406 74 289 5.0 13.0 0.00 0.00 0.00 51 1011.4
20190425002906 74 283 8.0 16.0 0.00 0.00 0.00 52 1011.4
20190425002405 73 273 8.0 14.0 0.00 0.00 0.00 55 1011.4
20190425001906 74 273 10.0 17.0 0.00 0.00 0.00 54 1011.4
20190425001406 75 289 10.0 17.0 0.00 0.00 0.00 51 1011.3
20190425000906 76 271 10.0 17.0 0.00 0.00 0.00 50 1011.3
20190425000405 77 276 8.0 15.0 0.00 0.00 0.00 51 1011.3
20190424235905 77 297 9.0 16.0 0.00 0.00 0.00 49 1011.3
20190424235405 78 271 10.0 15.0 0.00 0.00 0.00 49 1011.3
20190424234906 79 272 8.0 14.0 0.00 0.00 0.00 45 1011.3
20190424234406 79 278 9.0 15.0 0.00 0.00 0.00 46 1011.3
20190424233906 80 281 7.0 15.0 0.00 0.00 0.00 42 1011.3
20190424233406 80 274 10.0 15.0 0.00 0.00 0.00 42 1011.3
20190424232906 80 330 5.0 12.0 0.00 0.00 0.00 41 1011.4
20190424232406 80 291 5.0 15.0 0.00 0.00 0.00 41 1011.4
20190424231906 80 272 7.0 14.0 0.00 0.00 0.00 41 1011.4
20190424231405 80 270 5.0 12.0 0.00 0.00 0.00 41 1011.6
20190424230903 80 284 9.0 15.0 0.00 0.00 0.00 42 1011.6
20190424230406 80 298 6.0 12.0 0.00 0.00 0.00 43 1011.6
20190424225905 80 285 10.0 15.0 0.00 0.00 0.00 44 1011.7
20190424225406 80 301 7.0 18.0 0.00 0.00 0.00 44 1011.7
20190424224906 80 274 10.0 15.0 0.00 0.00 0.00 42 1011.7
20190424224406 80 303 7.0 15.0 0.00 0.00 0.00 42 1011.8
20190424223906 80 273 9.0 14.0 0.00 0.00 0.00 43 1011.8
20190424223406 81 293 10.0 15.0 0.00 0.00 0.00 42 1011.8
20190424222905 81 274 8.0 13.0 0.00 0.00 0.00 42 1011.9
20190424222405 81 271 9.0 17.0 0.00 0.00 0.00 43 1011.9
20190424221906 81 276 10.0 16.0 0.00 0.00 0.00 42 1011.9
20190424221406 81 271 11.0 18.0 0.00 0.00 0.00 40 1011.9
20190424220907 81 278 11.0 18.0 0.00 0.00 0.00 41 1011.9
20190424220407 81 267 9.0 16.0 0.00 0.00 0.00 42 1011.9
20190424215906 81 269 9.0 16.0 0.00 0.00 0.00 41 1012.0
20190424215403 81 281 9.0 14.0 0.00 0.00 0.00 41 1012.0
20190424214905 81 273 8.0 13.0 0.00 0.00 0.00 42 1012.0
20190424214403 81 271 10.0 14.0 0.00 0.00 0.00 42 1012.2
20190424213906 80 273 10.0 16.0 0.00 0.00 0.00 42 1012.2
20190424213406 80 278 9.0 14.0 0.00 0.00 0.00 43 1012.2
20190424212906 80 280 9.0 16.0 0.00 0.00 0.00 43 1012.3
20190424212406 80 283 10.0 15.0 0.00 0.00 0.00 44 1012.3
20190424211906 81 278 9.0 15.0 0.00 0.00 0.00 44 1012.3
20190424211405 82 281 8.0 16.0 0.00 0.00 0.00 43 1012.3
20190424210905 81 282 8.0 14.0 0.00 0.00 0.00 41 1012.3
20190424210406 82 269 8.0 14.0 0.00 0.00 0.00 39 1012.3
20190424205905 82 283 8.0 14.0 0.00 0.00 0.00 40 1012.3
20190424205405 82 269 8.0 15.0 0.00 0.00 0.00 39 1012.3
20190424204905 82 294 7.0 13.0 0.00 0.00 0.00 39 1012.3
20190424204405 81 297 5.0 10.0 0.00 0.00 0.00 39 1012.4
20190424203904 81 291 7.0 13.0 0.00 0.00 0.00 40 1012.4
20190424203406 80 271 4.0 12.0 0.00 0.00 0.00 40 1012.4
20190424202905 80 276 9.0 12.0 0.00 0.00 0.00 40 1012.4
20190424202406 80 290 6.0 13.0 0.00 0.00 0.00 41 1012.4
20190424201906 79 276 7.0 12.0 0.00 0.00 0.00 45 1012.4
20190424201405 79 284 6.0 10.0 0.00 0.00 0.00 47 1012.6
20190424200906 79 311 7.0 10.0 0.00 0.00 0.00 49 1012.6
20190424200406 79 306 5.0 7.0 0.00 0.00 0.00 51 1012.6
20190424195906 79 277 6.0 10.0 0.00 0.00 0.00 52 1012.6
20190424195407 78 284 5.0 9.0 0.00 0.00 0.00 52 1012.6
20190424194907 78 281 5.0 9.0 0.00 0.00 0.00 53 1012.6